Location: Aghk�ilisa
(40.0189°N, 45.0097°E)
Time: 07:25:06
(UTC+00:00)

USA 116 - Pass Details

Date: 21 October 2019
Orbit: 405 x 834 km, 97.9° (Epoch: 18 November)

Event Time Altitude Azimuth Distance (km) Brightness Sun altitude
Rises 14:53:47 0° 23° (NNE) 2,393 6.7 -8.6°
Reaches altitude 10° 14:55:51 10° 34° (NE) 1,557 5.7 -9.0°
Maximum altitude 14:58:51 32° 100° (E) 822 4.1 -9.6°
Drops below altitude 10° 15:02:07 10° 165° (SSE) 1,691 6.1 -10.2°
Sets 15:04:27 0° 175° (S) 2,640 7.2 -10.7°
